^^
Station Historical Data
 
Daily Summary for August 22, 2017 Units:  English    Metric   Both
« Previous Day
Next Day »
Daily Weekly Monthly Yearly Custom
  Current: High: Low: Average:
Temperature: 79.9 °F 79.9 °F 72.0 °F 74.3 °F
Dew Point: 73.5 °F 73.8 °F 70.4 °F 71.1 °F
Humidity: 81% 95% 81% 90%
Wind Speed: 5.0mph 5.0mph 0.0mph 1.8mph
Wind Gust: 8.0mph 12.0mph - -
WindSouth - - SSW
Pressure: 29.99 in 30.09 in 29.99 in -
Precipitation: 0.00 in      
Historical Graphs
 
 
Tabular Data for August 22, 2017
Time Temperature Dew Point Pressure Wind Wind Speed Wind Gust Humidity Rainfall Rate (Hourly) Conditions
00:00 75.7 °F 70.5 °F 30.09 in SSW 1.0 mph 7.0 mph 84% 0.00 in CLR
00:15 75.6 °F 70.8 °F 30.09 in SSW 3.0 mph 7.0 mph 85% 0.00 in CLR
00:30 75.4 °F 70.6 °F 30.09 in South 2.0 mph 6.0 mph 85% 0.00 in CLR
00:45 75.2 °F 70.7 °F 30.08 in South 2.0 mph 5.0 mph 86% 0.00 in CLR
01:00 74.9 °F 70.4 °F 30.08 in South 3.0 mph 5.0 mph 86% 0.00 in CLR
02:15 74.3 °F 70.8 °F 30.06 in Calm   6.0 mph 89% 0.00 in CLR
02:30 74.1 °F 70.7 °F 30.06 in Calm   5.0 mph 89% 0.00 in CLR
02:45 73.9 °F 70.8 °F 30.06 in South 1.0 mph 4.0 mph 90% 0.00 in CLR
03:00 73.5 °F 70.4 °F 30.06 in SSW 1.0 mph 3.0 mph 90% 0.00 in CLR
03:15 73.4 °F 70.6 °F 30.05 in SSW 1.0 mph 4.0 mph 91% 0.00 in CLR
03:30 73.3 °F 70.5 °F 30.05 in SW 1.0 mph 5.0 mph 91% 0.00 in CLR
03:45 73.3 °F 70.8 °F 30.04 in SSW 1.0 mph 4.0 mph 92% 0.00 in CLR
04:00 73.2 °F 70.7 °F 30.04 in SW 2.0 mph 4.0 mph 92% 0.00 in CLR
04:15 73.1 °F 70.6 °F 30.03 in Calm   3.0 mph 92% 0.00 in CLR
04:30 72.8 °F 70.7 °F 30.03 in SW 1.0 mph 3.0 mph 93% 0.00 in CLR
04:45 72.9 °F 70.8 °F 30.03 in SW 2.0 mph 7.0 mph 93% 0.00 in CLR
05:00 72.9 °F 70.8 °F 30.03 in SSW 1.0 mph 5.0 mph 93% 0.00 in CLR
05:15 72.7 °F 70.6 °F 30.03 in SW 2.0 mph 5.0 mph 93% 0.00 in FEW
05:30 72.5 °F 70.7 °F 30.03 in Calm   5.0 mph 94% 0.00 in FEW
05:45 72.4 °F 70.5 °F 30.02 in SSW 1.0 mph 4.0 mph 94% 0.00 in FEW
06:00 72.2 °F 70.4 °F 30.02 in Calm   4.0 mph 94% 0.00 in FEW
06:15 72.0 °F 70.5 °F 30.03 in SSW 1.0 mph 5.0 mph 95% 0.00 in CLR
06:30 72.2 °F 70.7 °F 30.03 in South 3.0 mph 5.0 mph 95% 0.00 in CLR
06:45 72.2 °F 70.7 °F 30.03 in Calm   5.0 mph 95% 0.00 in CLR
07:00 72.2 °F 70.7 °F 30.02 in SW 1.0 mph 3.0 mph 95% 0.00 in CLR
07:15 72.4 °F 70.9 °F 30.02 in South 1.0 mph 3.0 mph 95% 0.00 in FEW
07:30 72.6 °F 70.8 °F 30.02 in South 1.0 mph 4.0 mph 94% 0.00 in FEW
07:45 73.0 °F 70.8 °F 30.02 in South 1.0 mph 5.0 mph 93% 0.00 in FEW
08:00 73.5 °F 71.0 °F 30.02 in SSW 3.0 mph 9.0 mph 92% 0.00 in FEW
08:15 74.0 °F 70.9 °F 30.02 in SSE 3.0 mph 7.0 mph 90% 0.00 in CLR
08:30 74.8 °F 71.3 °F 30.01 in SW 2.0 mph 12.0 mph 89% 0.00 in CLR
08:45 75.6 °F 71.8 °F 30.01 in SSW 5.0 mph 12.0 mph 88% 0.00 in CLR
09:00 76.4 °F 72.2 °F 30.00 in SW 5.0 mph 9.0 mph 87% 0.00 in CLR
09:15 77.0 °F 72.5 °F 30.00 in SSW 3.0 mph 9.0 mph 86% 0.00 in FEW
09:30 77.5 °F 72.6 °F 30.00 in SSW 3.0 mph 8.0 mph 85% 0.00 in FEW
09:45 77.9 °F 73.0 °F 30.00 in SSW 5.0 mph 10.0 mph 85% 0.00 in FEW
10:00 78.7 °F 73.1 °F 29.99 in SW 3.0 mph 9.0 mph 83% 0.00 in FEW
10:15 79.5 °F 73.8 °F 29.99 in South 1.0 mph 9.0 mph 83% 0.00 in FEW
10:30 79.9 °F 73.5 °F 29.99 in South 5.0 mph 8.0 mph 81% 0.00 in FEW
TarryTown NY Weather
Compliments of Weather Underground - 1.25 mb